Location: Long Geng
(2.6167°N, 114.1333°E)
Time: 19:18:24
(UTC+00:00)

BLOCK DM-SL R/B - Pass Details

Date: 14 May 2021
Orbit: 679 x 35587 km, 0.1° (Epoch: 16 June)

Event Time Altitude Azimuth Distance (km) Brightness Sun altitude
Exits shadow 21:53:31 - 267° (W) 6,247 7.5 -5.4°
Reaches altitude 10° 21:57:43 10° 266° (W) 4,320 6.7 -4.4°
Maximum altitude 22:05:43 68° 183° (S) 874 3.8 -2.5°
Drops below altitude 10° 22:09:30 10° 99° (E) 2,097 7.0 -1.6°
Sets 22:11:30 0° 95° (E) 3,107 8.1 -1.1°
